Regional Weather Roundup
Issued by NWS Charleston, SC

Current Version | Previous Version | Text Only | Print | Product List | Glossary Off
Versions: 1 2 3 4 5 6 7 8 9 10 11 12 13 14 15 16 17 18 19 20 21 22 23 24 25 26 27 28 29 30 31 32 33 34 35 36 37 38 39 40 41 42 43 44 45 46 47 48 49 50

000
ASUS42 KCHS 211310
RWRCHS
REGIONAL WEATHER ROUNDUP
NATIONAL WEATHER SERVICE CHARLESTON SC
900 AM EDT TUE OCT 21 2014

NOTE: "FAIR" INDICATES FEW OR NO CLOUDS BELOW 12,000 FEET WITH NO
SIGNIFICANT WEATHER AND/OR OBSTRUCTIONS TO VISIBILITY.

NOT ALL STATIONS ARE QUALITY CONTROLLED BY THE NATIONAL
WEATHER SERVICE. USE DATA WITH CAUTION...ESPECIALLY
DEWPOINT OBSERVATIONS.

SCZ027-030-031-034>040-042>050-211400-
...SOUTH CAROLINA...

CITY           SKY/WX    TMP DP  RH WIND       PRES   REMARKS
N CHARLESTON   SUNNY     67  59  75 NW3       29.98R
WATERFRONT PRK   N/A     70 N/A N/A CALM        N/A
FORT JOHNSON   NOT AVBL
JOHNS ISLAND   SUNNY     68  66  94 CALM      29.98R
PINOPOLIS        N/A     68  63  83 W3        29.89R
MONCKS CORNER  FAIR      63  61  94 CALM      29.97R
SUMMERVILLE    FAIR      61  59  94 CALM      29.98R
BEAUFORT MCAS  MOSUNNY   63  60  90 NW3       29.98R
BEAUFORT ARPT  FAIR      64  63  94 CALM      29.98R
HILTON HEAD IS SUNNY     64  63  94 CALM      30.00R
GEORGETOWN     NOT AVBL
WALTERBORO     SUNNY     63 N/A N/A CALM      29.99R
ORANGEBURG     SUNNY     56  52  86 CALM      29.98S
BARNWELL       FAIR      59  54  82 W3        30.00R
AIKEN          FAIR      55  55 100 CALM      30.02R
MANNING        FAIR      55 N/A N/A CALM      29.97S
KINGSTREE      NOT AVBL
COLUMBIA       SUNNY     57  51  80 SW5       29.98R
SUMTER         SUNNY     60  53  79 W6        29.96R
FLORENCE       SUNNY     58  54  86 W5        29.97R
MYRTLE BEACH   SUNNY     63  57  82 NW6       29.96R
N MYRTLE BEACH SUNNY     63  59  87 W5        29.96R

$$

GAZ063-065-086>088-099>101-113>116-118-119-134-136>141-150-211400-
...GEORGIA...

CITY           SKY/WX    TMP DP  RH WIND       PRES   REMARKS
SAVANNAH ARPT  SUNNY     65  58  78 CALM      29.99R
HUNTER AAF     SUNNY     65  64  99 NW3       29.97R
FORT STEWART   SUNNY     65  58  79 CALM      29.98R
STATESBORO     NOT AVBL
SYLVANIA       SUNNY     60  59  96 CALM      30.00R
CLAXTON        FAIR      59  59 100 CALM      30.00R
THOMSON        SUNNY     54  54 100 W5        30.04S
AUGUSTA-BUSH   SUNNY     52  50  93 CALM      29.99R
AUGUSTA-DANIEL SUNNY     61  52  72 NW8       30.00R
SWAINSBORO     FAIR      59  59 100 MISG      30.01R FOG
VIDALIA        SUNNY     61  57  88 CALM      30.01R
ALMA           SUNNY     62  57  83 N3        30.00R
WAYCROSS       SUNNY     65  62  88 CALM      30.01R
JESUP          FAIR      64  63  94 CALM      30.00R
BRUNSWICK      SUNNY     66  63  88 N5        30.00R
SAINT SIMONS   SUNNY     66  64  93 N7        29.98R

$$

SCZ027-028-034-036>038-045-046-048>050-GAZ119-141-211400-
...LAKE AND SUPPLEMENTAL COASTAL OBSERVATIONS...

STATION/POSITION TIME  TEMP    WIND        PRES    WAVE   SWELL
                       AIR SEA DIR/SP/G            HT/PER HT/PER/DIR
                 (UTC) (F)     (DEG/KT/KT) (MB)    (FT/S) (FT/S/D)
UPR LAKE MARION  NOT AVBL
WINYAH BAY       1200   62     300/  5     1014.0S
LAKE MURRAY      1200   58     250/  4/  6 1014.2S
ACE BASIN NERRS  1200   60        CALM     1014.0S
FORT PULASKI     1300   66     320/  3/  4 1015.5R
SAPELO ISLAND    NOT AVBL

$$

ANZ835-935-AMZ111-154-330-350-352-354-374-450-454-472-211400-
...C-MAN AND BUOY OBSERVATIONS...

STATION/POSITION TIME  TEMP    WIND        PRES    WAVE   SWELL
                       AIR SEA DIR/SP/G            HT/PER HT/PER/DIR
                 (UTC) (F)     (DEG/KT/KT) (MB)    (FT/S) (FT/S/D)
FOLLY BEACH CMAN 1200   65     300/  3/  5 1014.9R
BUOY 41004       1300   74 79  280/  6/  8 1014.0R   2/10   2/10
BUOY 41008       1300   73 76  350/ 10/ 14 1014.9R   2/11   2/ 80/11
5E ST. MARYS GA  1300      77                N/A     2/10
FRYING PAN BUOY  1300   72 75  320/  8/ 10 1014.8R   2/ 9   2/ 80/ 9
BUOY 41025       1300   70     290/ 14/ 16 1013.3R   3/ 5   2/ 90/11
CAPE LOOKOUT NC  1200   68     280/  9/ 11 1013.8F
BUOY 41002       1201   71 80  140/ 14/ 16 1015.0    4/11   3/100/11
BUOY 41010       1300   80 80  300/  6/  8 1014.8R   3/ 9   2/ 60/ 9
BUOY 41012       NOT AVBL
ST AUGUSTINE FL  1300   72     290/  4/  5 1015.6R
CAPERS NEARSHORE 1200   69     330/ 10/ 12   N/A
FRIPP NEARSHORE  NOT AVBL


$$



USA.gov is the U.S. government's official web portal to all federal, state and local government web resources and services.